[[{"header":{"parameterUnit":"m.s-1","parameterCategory":1,"la1":30.2991,"la2":30.254,"lo1":-89.0895,"lo2":-89.0444,"dy":0.0017,"dx":0.0017,"nx":28,"ny":28,"refTime":"2024-08-26T21:00:00:Z","depth":0,"parameterNumber":2,"parameterNumberName":"U-component_of_WINDS"},"data":[0,0,0,0,0,0,0,0,0,0,0,0,0,0,0,0,0,0,0,0,0,0,0,0,0,0,0,0,0,0,0,0,0,0,0,0,0,0,0,0,0,0,0,0,0,0,0,0,0,0,0,0,0,0,0,0,0,0,-3.2911,-3.2911,0,-3.2836,-3.2835,-3.2835,-3.2755,-3.2754,-3.2753,-3.2752,-3.2673,-3.2672,-3.2671,0,0,0,0,0,0,0,0,0,0,0,0,0,-3.2986,-3.2985,-3.2911,-3.291,-3.291,-3.2836,-3.2835,-3.2834,-3.2756,-3.2754,-3.2753,-3.2752,-3.2674,-3.2672,-3.2671,0,0,0,0,0,0,0,0,0,0,0,0,0,-3.2937,-3.2985,-3.2912,-3.2861,-3.2856,-3.2837,-3.2835,-3.2834,-3.2756,-3.2754,-3.2753,-3.2751,-3.2674,-3.2672,-3.2671,-3.2694,0,0,-3.2666,-3.2665,0,0,0,0,0,0,0,0,-3.294,-3.2934,-3.287,-3.2865,-3.2859,-3.2804,-3.2833,-3.2787,-3.2756,-3.2794,-3.2752,-3.275,-3.2718,-3.2712,-3.2702,-3.269,-3.2687,-3.2666,-3.2665,-3.2664,-3.2664,0,0,0,0,0,0,0,-3.2943,-3.2937,-3.2882,-3.2869,-3.2862,-3.2843,-3.2834,-3.2824,-3.2766,-3.279,-3.2785,-3.2777,-3.2714,-3.2704,-3.27,-3.2686,-3.2666,-3.2664,-3.2663,-3.2663,-3.2691,-3.2693,0,0,0,0,0,0,-3.2954,-3.294,-3.2884,-3.2879,-3.2896,-3.2843,-3.2833,-3.2823,-3.2766,-3.2756,-3.2778,-3.2773,-3.2707,-3.2701,-3.2696,-3.272,-3.2664,-3.2663,-3.2662,-3.269,-3.2692,-3.2694,0,0,0,0,0,0,-3.2956,-3.295,-3.2887,-3.2908,-3.2899,-3.2843,-3.2833,-3.2822,-3.2811,-3.2757,-3.2746,-3.2778,-3.2706,-3.2699,-3.2696,-3.2716,-3.2662,-3.266,-3.2688,-3.269,-3.2693,-3.2768,0,0,0,0,0,0,-3.2959,-3.2951,-3.2959,-3.2909,-3.2898,-3.2888,-3.2834,-3.2822,-3.2809,-3.2802,-3.2753,-3.2744,-3.2704,-3.2699,-3.2694,-3.2713,-3.2659,-3.2685,-3.2689,-3.2692,-3.2764,-3.2773,-3.2781,0,0,0,0,0,-3.2962,-3.2983,-3.296,-3.2954,-3.2907,-3.2889,-3.2882,-3.2837,-3.2811,-3.2819,-3.2784,-3.2745,-3.2716,-3.2699,-3.2693,-3.2712,-3.2684,-3.2688,-3.2692,-3.276,-3.2771,-3.2781,0,0,0,0,0,0,-3.3035,-3.2975,-3.2949,-3.2955,-3.2928,-3.2876,-3.2883,-3.285,-3.2829,-3.2823,-3.2767,-3.2757,-3.2761,-3.2736,-3.2719,-3.2733,-3.2694,-3.2697,-3.2748,-3.2759,-3.2767,-3.2772,-3.2658,0,0,0,0,0,-3.3052,-3.3043,-3.2991,-3.3001,-3.2989,-3.2939,-3.293,-3.2897,-3.2867,-3.2854,-3.2819,-3.2791,-3.2775,-3.2766,-3.2748,-3.2761,-3.2749,-3.2771,-3.278,-3.2788,-3.279,-3.2796,-3.2806,-3.2706,-3.2706,-3.2706,0,0,-3.3087,-3.3053,-3.305,-3.3015,-3.299,-3.2982,-3.293,-3.2923,-3.2916,-3.2853,-3.2848,-3.2822,-3.2787,-3.2792,-3.2793,-3.2772,-3.2816,-3.2793,-3.2799,-3.2797,-3.2801,-3.2811,-3.2819,-3.2709,-3.2709,-3.2708,0,0,-3.3145,-3.3119,-3.3125,-3.3102,-3.3066,-3.3033,-3.3035,-3.2989,-3.2969,-3.2964,-3.2917,-3.2909,-3.2883,-3.286,-3.2845,-3.2899,-3.2863,-3.2895,-3.2941,-3.2947,-3.2955,-3.2962,-3.2981,-3.2989,-3.2899,-3.2899,-3.2899,0,-3.3192,-3.3178,-3.3131,-3.3128,-3.3114,-3.3059,-3.3065,-3.3045,-3.3005,-3.2997,-3.2975,-3.2942,-3.2915,-3.2914,-3.2928,-3.2918,-3.2918,-3.2899,-3.2958,-3.2964,-3.2969,-3.2987,-3.2995,-3.2903,-3.2902,-3.2902,-3.2902,0,-3.3238,-3.323,-3.3239,-3.3203,-3.319,-3.3192,-3.3146,-3.3139,-3.3109,-3.3079,-3.3075,-3.3041,-3.3016,-3.3014,-3.2983,-3.301,-3.2999,-3.2968,-3.2928,-3.2984,-3.3,-3.3006,-3.2909,-3.2907,-3.2906,-3.2905,0,0,-3.3337,-3.3278,-3.3282,-3.3266,-3.3224,-3.3217,-3.3217,-3.3194,-3.3189,-3.3165,-3.3163,-3.3144,-3.3116,-3.31,-3.3067,-3.3073,-3.3119,-3.3042,-3.304,-3.3057,-3.3147,-3.3169,-3.3178,-3.3096,-3.3097,-3.3098,-3.315,0,-3.3387,-3.3383,-3.3343,-3.3351,-3.3343,-3.3292,-3.3292,-3.3267,-3.324,-3.3229,-3.3199,-3.3187,-3.3151,-3.3141,-3.3145,-3.3113,-3.3136,-3.3109,-3.3093,-3.3093,-3.3102,-3.3186,-3.3209,-3.3259,-3.3156,-3.3157,-3.3157,0,-3.3444,-3.3425,-3.3432,-3.3393,-3.3388,-3.3388,-3.3365,-3.3356,-3.3327,-3.3307,-3.3291,-3.3255,-3.3252,-3.3217,-3.3213,-3.3195,-3.3187,-3.3171,-3.3172,-3.3167,-3.3127,-3.3183,-3.3274,-3.3281,-3.3167,-3.3166,-3.3165,0,-3.3515,-3.3491,-3.3493,-3.3481,-3.3435,-3.3437,-3.3417,-3.3387,-3.3377,-3.3357,-3.335,-3.333,-3.3319,-3.3305,-3.3264,-3.3242,-3.3266,-3.3226,-3.3249,-3.325,-3.3254,-3.3254,-3.3344,-3.3251,-3.3251,-3.3251,-3.3251,0,-3.3575,-3.3581,-3.3524,-3.3525,-3.3532,-3.3486,-3.3494,-3.347,-3.3444,-3.3439,-3.3395,-3.3392,-3.334,-3.3331,-3.33,-3.3302,-3.3297,-3.3281,-3.3272,-3.3284,-3.3286,-3.3277,-3.3272,-3.3253,-3.3253,-3.3252,-3.3252,0,-3.3653,-3.3616,-3.3614,-3.3572,-3.3562,-3.3568,-3.3532,-3.3531,-3.3503,-3.3499,-3.3495,-3.345,-3.3438,-3.3398,-3.3375,-3.3354,-3.3366,-3.335,-3.3375,-3.337,-3.3394,-3.3392,-3.348,-3.3489,-3.3393,-3.3394,-3.3394,0,-3.3693,-3.3697,-3.3656,-3.3651,-3.3634,-3.3625,-3.3615,-3.3572,-3.3563,-3.3533,-3.3536,-3.3521,-3.3506,-3.3489,-3.3454,-3.3437,-3.342,-3.3453,-3.3417,-3.343,-3.342,-3.342,-3.342,-3.3459,-3.3461,-3.3462,-3.3463,0,-3.3767,-3.3749,-3.3736,-3.3719,-3.3708,-3.3692,-3.3673,-3.3671,-3.3623,-3.3615,-3.3603,-3.3592,-3.357,-3.3556,-3.3534,-3.3514,-3.3481,-3.3475,-3.3479,-3.349,-3.3504,-3.3496,-3.3395,-3.3472,-3.3471,-3.347,-3.347,-3.3469,-3.3826,-3.3828,-3.3801,-3.3789,-3.3771,-3.3755,-3.3752,-3.3725,-3.3715,-3.3694,-3.367,-3.3661,-3.3634,-3.3601,-3.3585,-3.3577,-3.3559,-3.3565,-3.3566,-3.3568,-3.3574,-3.3508,-3.3573,-3.3573,-3.3573,-3.3572,-3.3572,0,-3.3897,-3.3878,-3.3868,-3.3844,-3.3835,-3.3807,-3.3785,-3.3779,-3.3772,-3.3751,-3.3738,-3.3725,-3.3712,-3.3678,-3.3662,-3.3662,-3.3647,-3.3659,-3.3658,-3.3654,-3.3591,-3.3589,-3.3672,-3.3672,-3.3672,-3.3672,-3.3672,-3.3672,-3.3933,-3.3935,-3.3915,-3.3908,-3.3888,-3.388,-3.387,-3.3856,-3.3838,-3.3826,-3.3815,-3.3794,-3.3768,-3.375,-3.3737,-3.3728,-3.3723,-3.3741,-3.3726,-3.3668,-3.3658,-3.3649,-3.3647,-3.3741,-3.3741,-3.3789,-3.379,-3.379]},{"header":{"parameterUnit":"m.s-1","parameterCategory":1,"la1":30.2991,"la2":30.254,"lo1":-89.0895,"lo2":-89.0444,"dy":0.0017,"dx":0.0017,"nx":28,"ny":28,"refTime":"2024-08-26T21:00:00:Z","depth":0,"parameterNumber":3,"parameterNumberName":"V-component_of_WINDS"},"data":[0,0,0,0,0,0,0,0,0,0,0,0,0,0,0,0,0,0,0,0,0,0,0,0,0,0,0,0,0,0,0,0,0,0,0,0,0,0,0,0,0,0,0,0,0,0,0,0,0,0,0,0,0,0,0,0,0,0,2.6922,2.6922,0,2.6965,2.6965,2.6966,2.7006,2.7007,2.7007,2.7008,2.7047,2.7048,2.7049,0,0,0,0,0,0,0,0,0,0,0,0,0,2.687,2.687,2.6922,2.6922,2.6923,2.6965,2.6965,2.6966,2.7006,2.7007,2.7007,2.7008,2.7047,2.7048,2.7049,0,0,0,0,0,0,0,0,0,0,0,0,0,2.69,2.6871,2.6922,2.6948,2.6951,2.6965,2.6965,2.6966,2.7006,2.7007,2.7008,2.7008,2.7047,2.7048,2.7049,2.7038,0,0,2.7051,2.7052,0,0,0,0,0,0,0,0,2.6898,2.6902,2.6944,2.6946,2.6949,2.6981,2.6962,2.699,2.7006,2.6985,2.7008,2.7009,2.7024,2.7027,2.7033,2.704,2.7042,2.7051,2.7052,2.7052,2.7053,0,0,0,0,0,0,0,2.6896,2.69,2.6939,2.6944,2.6948,2.6956,2.6961,2.6967,2.7,2.6987,2.699,2.6995,2.7026,2.7032,2.7035,2.7043,2.7051,2.7052,2.7053,2.7053,2.7042,2.7041,0,0,0,0,0,0,2.6891,2.6898,2.6937,2.694,2.6925,2.6956,2.6962,2.697,2.7,2.7005,2.6994,2.6996,2.7031,2.7034,2.7036,2.7025,2.7052,2.7053,2.7054,2.7042,2.7041,2.7041,0,0,0,0,0,0,2.6889,2.6894,2.6935,2.692,2.6926,2.6957,2.6965,2.697,2.6977,2.7005,2.7011,2.6995,2.7031,2.7035,2.7038,2.7027,2.7053,2.7054,2.7043,2.7042,2.7041,2.7003,0,0,0,0,0,0,2.6888,2.6893,2.6891,2.692,2.6927,2.6937,2.6964,2.6971,2.6979,2.6982,2.7007,2.7012,2.7032,2.7036,2.7038,2.7029,2.7055,2.7044,2.7043,2.7041,2.7005,2.7,2.6996,0,0,0,0,0,2.6886,2.6877,2.689,2.6895,2.6924,2.6937,2.6941,2.6965,2.6978,2.6975,2.6993,2.7011,2.7028,2.7036,2.7039,2.7029,2.7045,2.7043,2.7042,2.7007,2.7001,2.6997,0,0,0,0,0,0,2.6845,2.6882,2.6896,2.6898,2.6914,2.6944,2.694,2.6958,2.697,2.6973,2.7001,2.7007,2.7005,2.7018,2.7026,2.702,2.7039,2.7038,2.7012,2.7007,2.7002,2.6999,2.7056,0,0,0,0,0,2.6836,2.6845,2.6876,2.6874,2.6881,2.6909,2.6916,2.6933,2.6951,2.6957,2.6976,2.699,2.6999,2.7004,2.7013,2.7008,2.7013,2.7002,2.6998,2.6994,2.6992,2.6988,2.6984,2.7035,2.7035,2.7035,0,0,2.6818,2.6839,2.6842,2.6866,2.6881,2.6887,2.6915,2.6921,2.6925,2.6958,2.6961,2.6975,2.6993,2.6992,2.6992,2.7002,2.6979,2.6992,2.6989,2.6989,2.6986,2.6981,2.6977,2.7033,2.7034,2.7034,0,0,2.6788,2.6805,2.6805,2.6819,2.6842,2.686,2.686,2.6887,2.6898,2.6903,2.6927,2.6932,2.6946,2.6958,2.6966,2.694,2.6956,2.6942,2.6918,2.6914,2.691,2.6907,2.6896,2.6892,2.694,2.694,2.694,0,2.6761,2.6774,2.6802,2.6806,2.6815,2.6847,2.6845,2.6858,2.6881,2.6886,2.6897,2.6916,2.693,2.6931,2.6924,2.693,2.6929,2.6938,2.6909,2.6906,2.6903,2.6893,2.6889,2.6938,2.6938,2.6938,2.6939,0,2.6739,2.6747,2.6744,2.6767,2.6776,2.6777,2.6805,2.681,2.6826,2.6843,2.6846,2.6865,2.6879,2.688,2.6897,2.6883,2.6888,2.6904,2.6923,2.6896,2.6886,2.6883,2.6935,2.6936,2.6936,2.6937,0,0,2.6683,2.6723,2.6721,2.6731,2.6758,2.6764,2.6766,2.6781,2.6784,2.6799,2.68,2.6812,2.6826,2.6835,2.6853,2.685,2.6825,2.6866,2.6867,2.6856,2.6809,2.6796,2.6791,2.6838,2.6837,2.6837,2.6807,0,2.6656,2.6663,2.6689,2.6688,2.6694,2.6724,2.6726,2.6741,2.6757,2.6764,2.6781,2.6788,2.6808,2.6813,2.6812,2.6829,2.6816,2.6832,2.6837,2.6837,2.6829,2.6786,2.6772,2.6743,2.6804,2.6803,2.6803,0,2.6625,2.6639,2.6639,2.6665,2.6669,2.667,2.6684,2.6691,2.6709,2.6721,2.673,2.6751,2.6753,2.6772,2.6774,2.6784,2.6788,2.6797,2.6796,2.6796,2.6817,2.6783,2.6735,2.673,2.6798,2.6798,2.6798,0,2.6581,2.6601,2.6603,2.6611,2.6642,2.6642,2.6654,2.6673,2.668,2.6692,2.6697,2.6709,2.6715,2.6723,2.6745,2.6757,2.6744,2.6766,2.6752,2.6751,2.6746,2.6746,2.6696,2.6752,2.6752,2.6752,2.6752,0,2.6547,2.6545,2.6584,2.6585,2.6583,2.6612,2.6609,2.6624,2.6641,2.6644,2.6671,2.6673,2.6703,2.6708,2.6725,2.6723,2.6726,2.6734,2.6738,2.6731,2.6729,2.6732,2.6734,2.6751,2.6751,2.6751,2.6751,0,2.6498,2.6524,2.6528,2.6557,2.6564,2.6561,2.6586,2.6587,2.6605,2.6608,2.6611,2.6638,2.6645,2.6669,2.6681,2.6693,2.6685,2.6695,2.6679,2.6681,2.6665,2.6666,2.6614,2.6608,2.6669,2.6669,2.6668,0,2.6473,2.6472,2.6502,2.6507,2.6519,2.6526,2.6533,2.6561,2.6567,2.6588,2.6586,2.6596,2.6605,2.6614,2.6634,2.6644,2.6652,2.6634,2.6654,2.6646,2.665,2.6648,2.6648,2.6628,2.6628,2.6627,2.6627,0,2.6426,2.6439,2.6449,2.6463,2.6471,2.6484,2.6497,2.6499,2.6531,2.6536,2.6544,2.6552,2.6565,2.6573,2.6586,2.6598,2.6616,2.662,2.6617,2.6608,2.6598,2.6601,2.6665,2.6621,2.6621,2.6622,2.6622,2.6622,2.6387,2.6387,2.6408,2.6418,2.6431,2.6443,2.6446,2.6464,2.6472,2.6486,2.6502,2.6508,2.6525,2.6545,2.6555,2.6558,2.6569,2.6565,2.6563,2.6561,2.6557,2.66,2.6561,2.6561,2.6561,2.6562,2.6562,0,2.6339,2.6354,2.6363,2.6382,2.6389,2.6409,2.6425,2.6429,2.6435,2.645,2.6458,2.6467,2.6475,2.6496,2.6506,2.6505,2.6514,2.6506,2.6506,2.6507,2.6548,2.6549,2.6499,2.6499,2.6499,2.6499,2.6499,2.6499,2.6315,2.6316,2.6331,2.6339,2.6354,2.6361,2.6368,2.6378,2.6391,2.64,2.6407,2.6421,2.6438,2.645,2.6457,2.6463,2.6464,2.6454,2.6462,2.6499,2.6505,2.651,2.6511,2.6454,2.6454,2.6421,2.6421,2.642]}]]